Location: Jerzmanowice
(50.2137°N, 19.7383°E)
Time: 12:29:51
(UTC+00:00)

Daily predictions for brighter satellites

Satellite Brightness Start Highest point End
(mag) Time Altitude Azimuth Time Altitude Azimuth Time Altitude Azimuth
ATLAS 3B R/B 3.0 18:53:56 10° NW 19:01:02 84° SW 19:08:24 10° SE
SAR-Lupe-4 3.9 19:02:04 10° N 19:05:40 74° WNW 19:09:14 10° SSW
Cosmos 773 Rocket 4.0 19:02:00 10° SSW 19:07:13 87° ESE 19:12:25 10° NNE
Cosmos 1833 Rocket 3.4 19:02:01 10° SW 19:07:36 62° WNW 19:13:13 10° NNE
OBJECT-B 3.4 19:06:38 10° SW 19:09:06 20° W 19:11:37 10° NW
Cosmos 1092 Rocket 4.5 19:06:37 10° SSE 19:12:26 42° E 19:18:20 10° NNE
Terra 3.4 19:09:52 10° ESE 19:13:31 22° ENE 19:17:11 10° N
Cosmos 2082 Rocket 2.2 19:08:28 10° SSW 19:14:06 83° ESE 19:19:49 10° NNE
Cosmos 1842 Rocket 4.4 19:10:14 10° NNW 19:14:38 55° W 19:19:00 10° S
SPOT 5 3.8 19:12:02 10° ESE 19:15:42 28° ENE 19:19:27 10° N
Cosmos 2278 4.0 19:10:16 10° NNW 19:15:55 70° WSW 19:21:32 10° SSE
CZ-3B R/B 4.4 18:58:51 10° W 19:22:42 66° N 19:27:45 10° E
Cosmos 2360 Rocket 3.4 19:17:54 10° NNW 19:22:56 32° NE 19:27:56 10° ESE
Cosmos 1633 2.6 19:20:39 10° SSW 19:24:15 81° W 19:27:54 10° N
Cosmos 332 Rocket 3.8 19:20:20 10° NNW 19:25:16 78° ENE 19:30:10 10° SSE
ERS-1 Rocket 3.8 19:20:45 10° SE 19:25:21 38° ENE 19:29:59 10° N
Cosmos 2026 Rocket 4.5 19:19:36 10° SSE 19:25:30 43° E 19:31:21 10° NNE
Cosmos 158 Rocket 4.2 19:23:01 10° S 19:28:00 52° ESE 19:33:09 10° NNE
Cosmos 1606 3.9 19:26:29 10° NNW 19:30:05 41° W 19:33:39 10° SSW
Nadezhda 4 Rocket 4.0 19:26:44 10° S 19:32:55 90° WNW 19:39:13 10° N
Cosmos 2333 Rocket 3.9 19:28:28 10° NNW 19:32:56 23° NE 19:37:23 10° E
GP-B 3.5 19:30:20 10° NNE 19:34:37 45° E 19:38:47 10° SSE
Meteor 1-26 Rocket 4.4 19:29:46 10° N 19:35:45 68° ENE 19:41:31 10° SSE
Landsat 7 4.4 19:33:39 10° S 19:38:20 58° W 19:43:04 10° NNW
Spot 2 Rocket 3.6 19:34:36 10° SSE 19:39:40 68° ENE 19:44:45 10° N
SPOT 3 Rocket 3.9 19:34:49 10° S 19:40:00 66° WSW 19:45:14 10° NNW
ISS -2.6 19:37:32 10° W 19:40:36 32° SSW 19:42:58 14° SSE
Cosmos 1680 Rocket 4.2 19:38:06 10° SSE 19:42:48 34° ESE 19:47:31 10° NE
Cosmos 1980 Rocket 3.5 19:39:13 10° NW 19:44:19 36° WSW 19:49:25 10° S
USA 234 4.0 19:38:39 10° E 19:44:58 53° N 19:51:18 10° WNW
BREEZE-M DEB (TANK) 2.9 19:35:40 10° W 19:45:12 83° S 19:48:17 10° E
Cosmos 1812 3.8 19:42:00 10° N 19:45:28 30° ENE 19:48:00 15° SE
CZ-2C R/B 3.7 19:41:33 10° NNE 19:46:05 68° ESE 19:50:31 10° S
MetOp-B 4.4 19:41:06 10° S 19:46:25 68° WSW 19:51:48 10° NNW
Okean 3 Rocket 4.3 19:47:37 13° SSE 19:51:08 37° E 19:55:19 10° NNE
RESURS DK-1 3.7 19:48:34 10° SW 19:52:33 44° NW 19:56:34 10° NNE
USA 245 3.8 19:48:08 10° S 19:53:14 76° WSW 19:57:22 10° NNW
Cosmos 1428 Rocket 4.5 19:48:45 10° S 19:54:50 68° E 20:00:55 10° NNE
Cosmos 2322 Rocket 2.3 19:49:47 10° NNW 19:55:28 73° ENE 19:59:58 16° SE
BREEZE-M DEB (TANK) 3.8 19:52:19 10° SW 19:56:22 61° SSE 20:11:42 10° ENE
Cosmos 304 Rocket 4.2 19:54:57 10° NNW 19:59:40 58° WSW 20:03:55 12° S
Cosmos 1933 3.8 19:56:35 10° NNW 20:00:36 58° W 20:04:32 10° S
BREEZE-M DEB (TANK) 4.4 19:58:23 10° W 20:01:53 42° SSW 20:09:24 15° SE
Cosmos 1538 Rocket 4.4 19:57:58 10° SW 20:03:08 65° WNW 20:08:19 10° NNE
ERS-2 4.2 20:00:58 10° N 20:04:09 29° WNW 20:07:19 10° SW
Resurs 01 Rocket 3.4 20:00:32 10° SSW 20:04:24 29° W 20:08:19 10° NNW
Cosmos 1553 Rocket 4.1 20:00:11 10° N 20:06:13 62° ENE 20:10:57 17° SSE
Cosmos 2151 3.6 20:02:56 10° SSW 20:07:06 57° WNW 20:11:20 10° N
Gbstr 26 Del rocket 3.3 20:07:12 10° WNW 20:10:47 43° SSW 20:12:56 22° SSE
Meteor 2-3 Rocket 3.9 20:06:40 10° SSW 20:12:20 79° WNW 20:18:06 10° N
CARTOSAT-1 3.9 20:09:29 13° S 20:13:13 62° WSW 20:17:32 10° NNW
Cosmos 2084 4.1 20:12:30 18° S 20:14:45 30° ESE 20:18:26 10° ENE
Cosmos 2219 Rocket 3.4 20:11:52 10° NNW 20:16:56 33° NE 20:21:16 13° ESE
NOSS 2-1 (E) 4.1 20:18:08 23° ESE 20:18:08 23° ESE 20:20:39 10° ENE
Cosmos 1624 Rocket 4.0 20:13:57 10° NNW 20:19:11 74° ENE 20:22:39 22° SSE
NOSS 3-1 (C) 4.3 20:12:48 10° NW 20:19:52 63° NE 20:27:08 15° ESE
Cosmos 1862 3.6 20:21:25 24° SSE 20:23:29 47° E 20:27:19 10° NNE
SL-16 R/B 2.6 20:18:19 10° NW 20:23:54 58° WSW 20:28:03 18° S
Cosmos 2228 Rocket 4.5 20:22:48 10° NNE 20:26:31 26° ENE 20:28:36 18° ESE
Cosmos 1782 3.5 20:23:07 10° NNW 20:27:01 50° W 20:30:03 16° SSW
Cosmos 1515 Rocket 3.8 20:22:50 10° N 20:27:14 56° ENE 20:29:35 25° SE
COSMOS 2455 4.1 20:26:05 19° SE 20:27:41 22° ESE 20:32:07 10° ENE
Cosmos 2237 4.2 20:22:14 10° NNW 20:27:59 86° WSW 20:31:46 22° SSE
H-2A R/B 4.1 20:25:10 10° NNE 20:29:06 38° E 20:30:48 26° SE
Cosmos 1420 Rocket 4.2 20:24:54 10° NNW 20:30:13 64° ENE 20:33:28 23° SE
ARIANE 5 R/B 3.3 20:26:51 15° S 20:30:21 51° W 20:34:43 10° NNW
COSMOS 2428 3.8 20:26:10 10° NNW 20:31:23 35° NE 20:35:35 15° ESE
Cosmos 1655 Rocket 4.4 20:27:49 20° SSE 20:31:57 48° E 20:38:04 10° NNE
Meteor 2-6 Rocket 4.1 20:27:39 10° NNW 20:33:07 87° ENE 20:36:39 22° SSE
Cosmos 1271 Rocket 4.3 20:30:01 10° NNW 20:33:33 31° W 20:36:55 11° SSW
USA 229 DEB 4.5 20:26:59 10° NW 20:33:59 53° NE 20:40:52 12° ESE
USA 229 4.5 20:27:05 10° NW 20:34:05 52° NE 20:40:59 12° ESE
Cosmos 1809 Rocket 4.4 20:30:11 12° S 20:36:00 88° ESE 20:42:12 10° N
S3M 4.1 20:30:06 10° N 20:36:30 71° ENE 20:40:43 23° SSE
USA 276 3.5 20:35:48 10° W 20:38:23 23° SSW 20:38:32 23° SSW
BREEZE-M DEB (TANK) 4.0 20:36:23 10° W 20:39:48 30° SSW 20:43:14 21° SSE
Cosmos 1151 Rocket 3.8 20:36:24 10° NNW 20:40:37 49° W 20:43:40 18° SSW
Cosmos 1766 Rocket 3.8 20:37:42 14° SSW 20:41:29 69° W 20:45:52 10° N
ATLAS 5 CENTAUR R/B 3.2 20:38:47 10° NW 20:43:41 40° NE 20:49:11 11° ESE
Cosmos 1328 Rocket 4.0 20:40:30 10° NNW 20:44:53 58° W 20:47:39 21° SSW
Cosmos 1174 3.2 20:42:42 10° NNW 20:45:44 67° NE 20:46:29 44° ESE
ATLAS 2AS CENTAUR R/B 4.3 20:40:46 10° W 20:48:10 42° NNW 20:55:17 10° NE
Cosmos 1452 Rocket 4.0 20:44:30 10° NNW 20:49:38 50° ENE 20:52:30 25° SE
Terra 2.2 20:47:56 22° S 20:50:54 58° W 20:55:38 10° NNW
ATLAS 3B R/B 4.5 20:45:38 10° WNW 20:50:55 23° WSW 20:56:19 10° SSW
USA 267 3.6 20:46:01 10° ENE 20:52:08 40° SE 20:58:13 10° SSW
SPOT 5 3.7 20:50:49 17° SSW 20:53:41 37° W 20:57:48 10° NNW
NOSS 3-1 (A) 4.3 20:47:25 10° NW 20:54:32 63° NE 21:01:25 16° ESE
COSMOS 2487 4.0 20:58:35 21° E 20:58:35 21° E 21:00:42 10° NE
ALOS 2 4.2 20:56:33 18° E 20:58:33 25° ENE 21:02:07 10° N
Meteor 1-27 Rocket 3.8 20:53:12 10° N 20:58:50 70° ENE 21:01:49 29° SSE
Cosmos 2056 Rocket 3.9 20:54:00 10° NNW 20:59:16 56° WSW 21:02:09 26° S
Meteor 2-21 Rocket 4.4 20:56:51 20° S 21:01:23 89° ESE 21:07:36 10° N
NOSS 2-1 (C) 2.6 21:00:51 35° SSW 21:02:06 74° SE 21:05:31 10° NE
ERS-1 Rocket 4.2 21:00:35 15° SSW 21:04:10 35° W 21:08:47 10° NNW
BREEZE-M DEB (TANK) 3.5 21:02:24 10° W 21:03:12 22° W 21:03:12 22° W
Cosmos 2360 Rocket 2.5 21:01:44 10° NW 21:07:16 58° WSW 21:10:08 28° S
SL-27 R/B 2.5 21:06:23 34° SSW 21:07:51 83° WNW 21:11:29 10° NNE
IRIDIUM 104 4.4 21:04:20 10° N 21:09:32 65° E 21:11:50 33° SSE
NOSS 2-1 (D) 2.7 21:08:17 30° SW 21:09:47 88° SE 21:13:15 10° NE
Cosmos 1805 Rocket 4.1 21:12:06 35° SE 21:13:14 43° E 21:17:27 10° NNE
Cosmos 2333 Rocket 2.1 21:12:18 10° NNW 21:17:59 90° W 21:20:38 33° SSE
Cosmos 1833 4.2 21:14:09 20° SSW 21:18:18 80° ESE 21:24:07 10° NNE
IRIDIUM 114 4.3 21:13:27 10° N 21:18:42 77° E 21:20:57 35° SSE
Cosmos 1500 Rocket 3.5 21:22:34 37° SSW 21:24:19 86° W 21:28:47 10° N
Cosmos 972 Rocket 4.1 21:23:45 35° S 21:25:49 60° ESE 21:30:46 10° NNE
USA 234 3.2 21:22:43 19° ESE 21:27:43 87° NNE 21:34:19 10° WNW
IRIDIUM 103 4.3 21:22:36 10° N 21:27:52 89° W 21:30:05 36° S
NOSS 0 Rocket 4.5 21:22:09 10° NNW 21:28:17 54° NE 21:32:03 23° ESE
Cosmos 2322 3.7 21:22:33 10° NNW 21:28:18 81° WSW 21:30:49 35° SSE
COBE Rocket 3.7 21:29:38 41° SSE 21:31:16 88° WSW 21:35:59 10° NNW
Cosmos 292 Rocket 4.4 21:27:25 10° NW 21:31:58 44° WSW 21:33:40 31° SSW
Cosmos 2297 Rocket 3.9 21:35:24 16° ESE 21:36:02 16° E 21:39:24 10° ENE
Cosmos 2237 Rocket 3.2 21:33:19 10° NNW 21:38:42 41° NE 21:42:15 20° ESE
Cosmos 2322 Rocket 3.9 21:34:46 10° NW 21:38:55 21° W 21:41:46 15° SW
Lacrosse 5 4.0 21:42:48 12° E 21:42:48 12° E 21:43:44 10° E
Cosmos 1743 Rocket 4.0 21:42:22 31° SW 21:44:17 58° WNW 21:48:41 10° N
Cosmos 2285 Rocket 4.0 21:38:36 10° NNW 21:44:55 77° WSW 21:47:42 35° S
Cosmos 2084 Rocket 4.3 21:41:27 10° NW 21:45:28 45° NE 21:47:39 24° E
Cosmos 2227 Rocket 4.0 21:47:05 15° ESE 21:47:47 15° E 21:50:51 10° ENE
Cosmos 2315 Rocket 4.2 21:42:55 10° NNW 21:49:11 66° W 21:52:17 31° SSW
Meteor 1-25 Rocket 4.2 21:47:59 39° SSE 21:50:04 69° E 21:55:37 10° NNE
Gblst 52 Del rocket 4.5 21:45:38 10° WNW 21:51:51 74° SSW 21:56:46 21° ESE
Cosmos 1500 4.0 21:52:07 36° E 21:52:13 36° E 21:55:46 10° NNE
Sich 1 2.9 21:51:50 52° S 21:52:51 83° E 21:57:13 10° NNE
Cosmos 2084 4.4 21:50:10 10° WSW 21:54:07 46° NW 21:58:12 10° NE
Cosmos 494 Rocket 4.1 21:53:16 44° SSE 21:54:35 57° ESE 21:59:37 10° NNE
Okean 1 3.3 21:51:31 10° N 21:55:32 70° ENE 21:56:09 58° SE
Cosmos 1633 Rocket 3.5 21:56:02 42° ESE 21:56:40 45° E 22:00:51 10° NNE
Cosmos 1666 Rocket 3.7 21:59:59 51° SE 22:00:46 60° E 22:05:09 10° NNE
Cosmos 2219 Rocket 2.5 21:55:43 10° NW 22:01:10 54° WSW 22:02:58 38° SSW
Cosmos 1048 Rocket 3.8 21:59:25 41° SSW 22:01:13 81° ESE 22:06:22 10° NNE
Cosmos 489 Rocket 4.4 21:59:04 35° S 22:01:54 74° ESE 22:08:16 10° NNE
Cosmos 2228 Rocket 4.0 22:00:44 10° NNW 22:04:50 38° W 22:06:05 31° SW
Meteor 1-19 Rocket 4.1 21:59:31 10° NNW 22:05:13 89° ENE 22:07:11 42° SSE
SL-16 R/B 3.9 22:00:51 10° NNW 22:05:44 29° NE 22:10:35 10° ESE
BREEZE-M DEB (TANK) 4.3 21:56:48 10° SW 22:07:44 43° SSE 22:11:43 10° E
USA 40 PKM 4.2 22:04:55 10° WNW 22:08:28 65° SW 22:08:39 64° SSW
COSMOS 2455 2.9 22:09:10 24° SW 22:12:56 82° NW 22:19:01 10° NE
Meteor 2-4 Rocket 4.0 22:07:53 10° N 22:13:50 65° ENE 22:16:13 36° SE
Cosmos 1302 Rocket 4.3 22:09:24 10° NNW 22:14:36 62° ENE 22:16:38 36° SE
COSMOS 2428 3.1 22:10:23 10° NW 22:15:53 51° WSW 22:17:35 38° SSW
Cosmos 1602 3.8 22:17:48 57° WSW 22:18:19 65° W 22:22:11 10° N
CZ-4C R/B 4.0 22:13:14 10° NW 22:19:27 40° NNE 22:26:47 10° E
Cosmos 1515 4.3 22:16:55 10° NNW 22:20:31 43° W 22:20:48 42° WSW
APEX 4.4 22:20:21 42° S 22:22:10 61° ESE 22:28:41 10° NE
Cosmos 1862 Rocket 3.4 22:17:47 10° N 22:22:11 87° E 22:22:56 61° SSE
Meteor 1-14 Rocket 4.3 22:22:15 42° SSE 22:23:58 61° E 22:29:32 10° NNE
USA 229 DEB 4.1 22:18:03 10° NW 22:25:09 56° WSW 22:28:16 35° S
USA 229 4.1 22:18:08 10° NW 22:25:15 56° WSW 22:28:23 35° S
Cosmos 1378 4.4 22:22:23 10° N 22:25:42 30° ENE 22:26:14 29° E
Cosmos 1745 Rocket 4.2 22:23:42 37° SSE 22:26:03 60° E 22:32:14 10° NNE
ATLAS 5 CENTAUR R/B 2.4 22:23:11 10° NW 22:28:38 61° SW 22:30:39 41° S
Cosmos 1707 Rocket 4.2 22:27:22 10° NNW 22:31:31 44° W 22:32:18 40° WSW
COSMOS 2487 4.0 22:31:49 25° W 22:32:41 29° WNW 22:35:43 10° N
Thor Agena Rocket 3.9 22:28:05 10° NNE 22:32:59 47° E 22:34:07 40° SE
SAR-Lupe-2 4.0 22:30:19 10° NNE 22:33:40 50° E 22:33:40 50° E
ALOS 2 3.1 22:33:57 41° SW 22:34:40 44° W 22:38:54 10° NNW
USA 267 3.3 22:28:58 10° ENE 22:35:32 82° NNW 22:42:06 10° WSW
MTI 4.4 22:33:07 10° NNE 22:35:24 46° NE 22:35:24 46° NE
MINOTAUR IV R/B 4.5 22:32:16 10° NNW 22:36:52 88° WSW 22:37:46 58° SSE
Cosmos 1703 Rocket 4.2 22:32:50 10° N 22:37:03 46° ENE 22:38:07 38° ESE
Cosmos 1536 4.5 22:37:10 22° E 22:37:38 22° E 22:40:46 10° NE
Geosat 4.2 22:36:50 34° SE 22:39:00 68° NE 22:44:01 10° NNW
Nadezhda 1 Rocket 4.0 22:35:25 10° N 22:41:52 86° W 22:44:26 39° S
Cosmos 2219 3.8 22:40:38 36° SE 22:41:58 41° ESE 22:47:21 10° NE
Cosmos 1666 2.6 22:44:25 72° SE 22:44:34 74° E 22:48:27 10° NNE
NOSS 3-1 (A) 4.5 22:38:25 10° NW 22:45:33 47° WSW 22:48:48 33° SSW
NOSS 2-2 (D) 4.3 22:52:01 10° NW 22:57:10 80° SW 23:00:43 30° SSE
Cosmos 1980 3.8 22:54:15 10° NW 22:59:49 58° WSW 23:01:19 44° SSW
Intercosmos 25 Rocket 4.1 22:59:15 41° ESE 23:00:00 46° E 23:05:08 10° NNE
Cosmos 2333 Rocket 4.0 22:58:01 10° WNW 23:01:28 17° W 23:02:38 16° WSW
CZ-2D R/B 4.1 23:02:48 10° NE 23:06:31 19° E 23:09:04 14° ESE
Meteor 2-17 Rocket 4.3 23:05:18 41° S 23:07:37 88° WNW 23:13:42 10° N
USA 234 3.8 23:10:02 34° SSW 23:11:11 37° SW 23:17:11 10° WNW
SL-16 R/B 3.8 23:06:23 10° ESE 23:11:52 35° ENE 23:17:23 10° N
Cosmos 1340 Rocket 2.6 23:13:35 73° SSW 23:13:56 85° WNW 23:17:54 10° N
EO 1 Del DPAF 3.6 23:12:52 10° NNE 23:16:30 48° E 23:16:42 47° ESE
Okean 1-7 2.9 23:14:03 10° NNW 23:18:17 72° W 23:18:54 60° SSW
Cosmos 2297 Rocket 2.1 23:17:11 41° SSW 23:19:15 88° ESE 23:24:58 10° NNE
Cosmos 2237 Rocket 2.7 23:17:29 10° NW 23:22:48 42° WSW 23:24:02 37° SW
Lacrosse 5 1.8 23:21:59 49° SSW 23:23:07 64° SE 23:28:08 10° ENE
Cosmos 2242 Rocket 3.6 23:20:02 10° NNW 23:24:24 63° W 23:25:08 53° SW
Cosmos 1869 Rocket 3.8 23:23:27 48° SSE 23:24:27 62° E 23:28:53 10° NNE
Cosmos 2084 Rocket 4.5 23:21:03 10° WNW 23:24:07 31° WSW 23:24:07 31° WSW
Cosmos 2181 Rocket 4.0 23:21:28 10° N 23:27:52 82° E 23:30:51 34° SSE
Cosmos 1470 Rocket 4.5 23:29:03 32° WSW 23:30:07 37° WNW 23:34:10 10° N
Cosmos 2227 Rocket 2.1 23:28:53 41° SSW 23:30:56 83° ESE 23:36:38 10° NNE
Cosmos 909 Rocket 4.3 23:31:45 35° SSW 23:34:47 74° ESE 23:42:39 10° NE
Cosmos 1933 Rocket 4.1 23:35:34 39° WSW 23:36:41 48° WNW 23:41:02 10° N
CZ-4 R/B 4.3 23:34:07 10° NNE 23:39:04 57° E 23:40:46 37° SSE
Meteor 1-11 Rocket 3.6 23:41:19 40° SSW 23:43:24 81° WNW 23:48:58 10° N
Timation 1 Rocket 4.3 23:41:04 38° SSW 23:43:31 80° ESE 23:49:32 10° NNE
Cosmos 192 4.2 23:43:39 10° NNW 23:48:36 86° WSW 23:50:33 37° SSE
Cosmos 2263 Rocket 3.7 23:46:36 19° SE 23:49:06 26° ESE 23:53:42 10° NE
SL-16 R/B 2.2 23:44:42 10° NNW 23:50:21 68° WSW 23:52:43 35° S
Cosmos 1992 Rocket 4.2 23:45:36 10° NNW 23:50:41 53° WSW 23:52:06 40° SSW
ADEOS Rocket 3.6 23:47:08 13° SE 23:51:49 46° ENE 23:57:04 10° N
Resurs 1-4 Rocket 2.9 23:47:42 10° NNE 23:52:44 41° E 23:55:13 26° SSE
